DateTimeUTC,F1_A11,F1_S11,BsB_S11,BsG_S11,BsR_S11,BbsB_S11,BbsG_S11,BbsR_S11,BaB_A11,BaG_A11,BaR_A11,Tu_S11,T_S11,Uu_S11,U_S11,P_S11,T1_A11
2021-03-27T17:00:00Z,00000200,21000000,,,,,,,0000.01,0000.06,0000.18,16.8,24.3,,00.0,0636.5,30.9
2021-03-27T17:01:00Z,00000200,21000000,,,,,,,-000.03,0000.29,-000.41,16.7,24.3,,00.0,0636.5,30.9
2021-03-27T17:02:00Z,00000200,21000000,,,,,,,-000.00,-000.59,0000.29,16.7,24.3,,00.0,0636.5,30.9
2021-03-27T17:03:00Z,00000200,61000000,,,,,,,0000.76,0001.07,0000.50,16.7,24.3,,00.0,0636.5,30.9
2021-03-27T17:04:00Z,00000200,41000000,0002.37,0001.76,0000.74,0000.02,0000.24,0000.30,0001.37,0001.04,0000.99,16.7,24.0,,00.0,0637.3,30.9
2021-03-27T17:05:00Z,00000200,01000000,0003.00,0001.63,0000.73,0000.58,0000.35,0000.18,0001.41,0001.59,0001.02,16.7,23.9,,00.0,0637.4,30.9
2021-03-27T17:06:00Z,00000200,01000000,0002.82,0001.70,0000.61,0000.68,0000.34,0000.01,0001.35,0001.10,0000.97,16.8,23.8,,00.0,0637.4,30.9
2021-03-27T17:07:00Z,00000200,01000000,0002.66,0001.69,0000.83,0000.03,0000.19,0000.27,0001.28,0000.88,0000.97,16.9,23.9,,00.0,0637.4,30.9
2021-03-27T17:08:00Z,00000200,01000000,0002.01,0001.60,0000.92,0000.83,0000.13,-000.09,0001.03,0001.56,0000.73,16.9,23.9,,00.0,0637.4,30.9
2021-03-27T17:09:00Z,00000200,01000000,0002.51,0001.46,0000.81,0000.43,0000.28,0000.12,0001.42,0001.27,0000.94,17.0,23.9,,00.0,0637.4,30.9
2021-03-27T17:10:00Z,00000200,01000000,0002.23,0001.75,0000.94,0000.25,0000.39,0000.06,0001.27,0000.93,0001.37,17.1,24.0,,00.0,0637.4,31.0
2021-03-27T17:11:00Z,00000200,01000000,0001.95,0001.35,0000.86,0000.06,0000.11,0000.33,0001.10,0000.97,0000.76,17.1,24.0,,00.0,0637.4,31.0
2021-03-27T17:12:00Z,00000200,01000000,0002.20,0001.57,0000.88,0000.46,0000.32,0000.15,0001.21,0000.90,0000.39,17.2,24.0,,00.0,0637.4,31.0
2021-03-27T17:13:00Z,00000200,01000000,0002.31,0001.55,0001.42,0000.07,0000.45,0000.08,0001.10,0001.57,0001.19,17.3,24.0,,00.0,0637.4,31.0
2021-03-27T17:14:00Z,00000200,01000000,0002.21,0001.56,0001.23,0000.41,0000.27,0000.20,0000.63,0000.75,0000.77,17.3,24.0,,00.0,0637.4,31.0
2021-03-27T17:15:00Z,00000200,01000000,0002.65,0001.66,0000.91,0000.64,0000.34,0000.17,0001.64,0001.20,0000.52,17.2,24.0,,00.0,0637.4,31.0
2021-03-27T17:16:00Z,00000200,01000000,0002.25,0001.60,0000.81,0000.34,0000.21,0000.06,0000.83,0000.83,0000.91,17.2,24.0,,00.0,0637.4,30.9
2021-03-27T17:17:00Z,00000200,01000000,0002.35,0001.34,0000.94,0000.04,0000.24,0000.34,0001.38,0001.16,0000.75,17.1,24.0,,00.0,0637.4,30.9
2021-03-27T17:18:00Z,00000200,01000000,0002.55,0001.50,0000.74,0000.53,0000.23,0000.38,0001.27,0000.98,0000.73,17.0,23.9,,00.0,0637.4,30.9
2021-03-27T17:19:00Z,00000200,01000000,0002.58,0001.76,0000.93,-000.09,0000.67,-000.01,0001.18,0001.16,0001.14,17.0,23.9,,00.0,0637.5,30.9
2021-03-27T17:20:00Z,00000200,01000000,0002.23,0001.70,0000.74,0000.10,0000.37,0000.11,0001.37,0001.27,0001.13,17.0,23.9,,00.0,0637.5,30.9
2021-03-27T17:21:00Z,00000200,01000000,0002.16,0001.79,0000.91,0000.32,0000.32,0000.09,0001.22,0001.39,0000.90,17.0,23.9,,00.0,0637.5,30.9
2021-03-27T17:22:00Z,00000200,01000000,0002.68,0001.65,0000.93,0000.51,0000.14,0000.19,0001.36,0001.13,0001.03,17.1,23.9,,00.0,0637.5,30.9
2021-03-27T17:23:00Z,00000200,01000000,0002.55,0001.63,0001.15,0000.41,0000.28,0000.24,0001.13,0000.99,0000.92,17.1,24.0,,00.0,0637.5,31.0
2021-03-27T17:24:00Z,00000200,01000000,0002.03,0001.19,0000.95,0000.50,0000.44,0000.13,0001.09,0001.13,0001.08,17.2,24.0,,00.0,0637.5,31.0
2021-03-27T17:25:00Z,00000200,01000000,0002.41,0001.45,0000.91,0000.54,0000.45,0000.29,0001.26,0001.36,0000.68,17.3,24.0,,00.0,0637.5,31.0
2021-03-27T17:26:00Z,00000200,01000000,0002.24,0001.49,0001.02,0000.17,0000.24,0000.20,0001.34,0001.14,0000.66,17.3,24.0,,00.0,0637.6,31.0
2021-03-27T17:27:00Z,00000200,01000000,0002.05,0001.67,0000.87,0000.85,0000.18,0000.16,0001.18,0000.99,0001.00,17.4,24.1,,00.0,0637.6,31.0
2021-03-27T17:28:00Z,00000200,01000000,0002.21,0001.56,0001.13,0000.04,0000.21,0000.07,0001.19,0001.09,0001.07,17.4,24.1,,00.0,0637.6,31.0
2021-03-27T17:29:00Z,00000200,01000000,0002.81,0001.56,0000.83,-000.08,0000.30,0000.35,0000.81,0000.74,0000.45,17.4,24.1,,00.0,0637.6,31.0
2021-03-27T17:30:00Z,00000200,01000000,0002.04,0001.42,0000.96,0000.42,0000.33,0000.30,0001.25,0001.29,0000.94,17.4,24.1,,00.0,0637.6,31.0
2021-03-27T17:31:00Z,00000200,01000000,0002.58,0001.57,0000.81,0000.44,0000.34,0000.19,0001.20,0000.74,0000.31,17.3,24.1,,00.0,0637.6,31.0
2021-03-27T17:32:00Z,00000200,01000000,0002.35,0001.51,0001.19,0000.51,0000.21,0000.19,0000.68,0001.13,0001.13,17.2,24.0,,00.0,0637.6,30.9
2021-03-27T17:33:00Z,00000200,01000000,0002.48,0001.40,0000.66,0000.64,0000.04,0000.11,0001.41,0001.08,0000.87,17.2,24.0,,00.0,0637.6,30.9
2021-03-27T17:34:00Z,00000200,01000000,0001.96,0001.44,0000.80,0000.13,0000.11,0000.26,0001.36,0000.99,0000.67,17.1,24.0,,00.0,0637.5,30.9
2021-03-27T17:35:00Z,00000200,01000000,0002.65,0001.58,0001.04,0000.25,0000.35,0000.23,0001.41,0000.99,0001.13,17.1,24.0,,00.0,0637.5,30.9
2021-03-27T17:36:00Z,00000200,01000000,0002.71,0001.53,0001.29,0000.22,0000.36,0000.38,0001.06,0001.24,0000.85,17.2,24.0,,00.0,0637.5,30.9
2021-03-27T17:37:00Z,00000200,01000000,0002.84,0001.34,0000.90,0000.57,0000.15,0000.25,0001.30,0001.48,0001.06,17.2,24.0,,00.0,0637.5,30.9
2021-03-27T17:38:00Z,00000200,01000000,0002.59,0001.25,0001.04,0000.59,0000.38,0000.13,0001.21,0001.09,0001.19,17.2,24.0,,00.0,0637.5,31.0
2021-03-27T17:39:00Z,00000200,01000000,0002.17,0001.30,0000.58,0000.63,0000.17,0000.25,0001.25,0000.59,0000.50,17.3,24.0,,00.0,0637.5,31.0
2021-03-27T17:40:00Z,00000200,01000000,0002.13,0001.42,0000.93,0000.29,0000.31,0000.26,0000.90,0001.53,0001.01,17.4,24.1,,00.0,0637.5,31.0
2021-03-27T17:41:00Z,00000200,01000000,0001.80,0001.26,0000.93,0000.65,0000.39,0000.35,0001.34,0000.79,0000.38,17.4,24.1,,00.0,0637.5,31.0
2021-03-27T17:42:00Z,00000200,01000000,0001.96,0001.67,0000.76,0000.05,0000.26,0000.12,0001.10,0000.97,0000.90,17.4,24.1,,00.0,0637.5,31.0
2021-03-27T17:43:00Z,00000200,01000000,0002.74,0001.13,0000.82,0000.46,0000.25,0000.18,0000.55,0001.17,0000.81,17.4,24.1,,00.0,0637.5,31.0
2021-03-27T17:44:00Z,00000200,01000000,0002.21,0001.42,0000.73,0000.24,0000.19,0000.35,0001.24,0001.01,0000.80,17.3,24.1,,00.0,0637.5,31.0
2021-03-27T17:45:00Z,00000200,01000000,0002.60,0001.58,0000.74,0000.25,0000.46,0000.08,0000.96,0000.64,0000.66,17.3,24.0,,00.0,0637.5,30.9
2021-03-27T17:46:00Z,00000200,01000000,0002.38,0001.36,0000.41,0000.60,0000.31,0000.04,0001.29,0001.06,0000.62,17.2,24.0,,00.0,0637.5,30.9
2021-03-27T17:47:00Z,00000200,01000000,0002.12,0001.33,0000.95,-000.07,0000.15,0000.31,0001.21,0001.21,0000.81,17.1,24.0,,00.0,0637.5,30.9
2021-03-27T17:48:00Z,00000200,01000000,0002.24,0001.51,0001.04,0000.76,0000.22,0000.45,0000.93,0000.67,0000.79,17.1,24.0,,00.0,0637.5,30.9
2021-03-27T17:49:00Z,00000200,01000000,0002.56,0001.47,0001.10,-000.32,0000.21,0000.42,0001.05,0000.60,0001.05,17.0,23.9,,00.0,0637.5,30.9
2021-03-27T17:50:00Z,00000200,01000000,0002.06,0001.39,0000.35,0000.25,0000.14,0000.11,0001.44,0001.42,0000.96,17.0,23.9,,00.0,0637.5,30.9
2021-03-27T17:51:00Z,00000200,01000000,0002.25,0001.40,0000.79,0000.42,0000.31,0000.25,0000.85,0001.24,0000.72,17.0,23.9,,00.0,0637.5,30.9
2021-03-27T17:52:00Z,00000200,01000000,0001.88,0001.35,0000.89,0000.47,-000.06,0000.13,0001.22,0001.30,0000.94,17.1,23.9,,00.0,0637.4,30.9
2021-03-27T17:53:00Z,00000200,01000000,0001.57,0001.23,0000.77,0000.03,0000.19,0000.19,0001.30,0001.05,0000.69,17.2,23.9,,00.0,0637.5,31.0
2021-03-27T17:54:00Z,00000200,01000000,0002.44,0001.30,0000.85,0000.00,0000.19,0000.31,0001.28,0001.02,0001.05,17.2,24.0,,00.0,0637.5,31.0
2021-03-27T17:55:00Z,00000200,01000000,0002.79,0001.41,0000.81,0000.27,0000.22,0000.27,0000.93,0001.11,0000.86,17.3,24.0,,00.0,0637.5,31.0
2021-03-27T17:56:00Z,00000200,01000000,0001.49,0001.78,0000.78,0000.13,0000.05,0000.09,0001.10,0000.85,0000.61,17.3,24.1,,00.0,0637.5,31.0
2021-03-27T17:57:00Z,00000200,41000000,,,,,,,0000.19,0000.39,0000.42,17.4,24.1,,00.0,0637.5,31.0
2021-03-27T17:58:00Z,00000200,61000000,,,,,,,-000.46,-000.38,-000.62,17.1,24.2,,00.0,0636.6,31.0
2021-03-27T17:59:00Z,00000200,21000000,,,,,,,0000.28,-000.06,0000.16,17.1,24.3,,00.0,0636.6,31.0
